Погода Первомайское

Погода Первомайское : погода сейчас, прогноз погоды и архив. Всё, что Вы хотите узнать о погоде Первомайское!

Хотите узнать прогноз погоды Первомайское? Тогда Вам сюда: Погода Первомайское

Поиск расширенной информации на нашем сайте:

Другие новости

Новости СМИ2

Главная страница сайта

Новости сайта

03.07.2017

Напоминаем, что на нашем специализированном сайте Метеоцентр.Азия вы можете получить высокодетализированные автоматические прогнозы погоды по пунктам России, СНГ и мира в авиационном формате (включающие направление и скорость ветра, видимость, явления погоды, количество и форму облачности, нижнюю и верхнюю границу облачности).

Рекомендуем: Грунтовка для дерева pinotex base пинотекс бейс.

Погода Первомайское - сегодня

Время (UTC), дата Ветер
(°,м/с) 
Видим.   Явления Облачность Т
(°С)
Тd
(°С)
f(%) Тe
(°С)
Pmin
(гПа)
dP
(гПа)
Po
(мм)
O2
(г/м3)
Тmin Tmax R s Состояние
почвы
03 20.08.17 тихо ()   10 км    5/0 средняя, верхняя 
[Ac trans|Ci fib]
+14.5 +8.2 66 +15  1019.2  0.5  754  287           
06 20.08.17 290 (З) 10 км    8/1 600 м средняя, верхняя 
[Cu med, cong|Ac trans|Ci fib]
+19.4 +8.2 48 +21  1018.4  -0.5  754  282           
09 20.08.17 250 (З) 10 км    8/3 600 м кучево-дожд., средняя 
[Cb cap|Ac trans]
+18.9 +7.5 47 +20  1017.8  -0.6  753  283           
12 20.08.17 тихо ()   10 км  в посл. час ливневой дождь  9/8 600 м кучево-дожд., средняя 
[Cb cap|Ac trans]
+12.4 +10.6 89 +14  1018.6  0.4  753  288    +19.9     
15 20.08.17 тихо ()   10 км    ясно 
+10.6 +9.6 94 +11  1018.8  0.2  754  291           
18 20.08.17 тихо ()   10 км    ясно 
+9.3 +8.4 94 +9  1019.1  0.2  754  292           
21 20.08.17 тихо ()   10 км    1/0 средняя 
[Ac trans]
+9.2 +8.4 95 +9  1019  -0.1  754  292           
00 21.08.17 тихо ()   10 км  {ливн. осадки}  8/3 600 м средняя, верхняя 
[Sc|Ac trans|Ci fib]
+10 +9.2 95 +10  1019.5  0.6  754  291  +8.9    0.4    мокрая 
03 21.08.17 300 (СЗ) 10 км    8/3 600 м средняя 
[Sc|Ac trans]
+12.7 +10.5 86 +16  1019.9  0.5  755  289           
06 21.08.17 320 (СЗ) 10 км    8/3 600 м кучево-дожд., средняя 
[Cb cap|Ac trans]
+15.6 +11 74 +19  1020.1  0.4  755  286           
09 21.08.17 310 (СЗ) 10 км    8/3 600 м средняя, верхняя 
[Cu med, cong|Ac trans|Cs]
+15.3 +9.1 66 +17  1020.1  -0.1  755  286           
12 21.08.17 320 (СЗ) 10 км    3/0 средняя 
[Ac trans]
+15.2 +7 58 +17  1020.4  0.3  755  287    +17.7       
15 21.08.17 тихо ()   10 км    ясно 
+9.9 +7.5 85 +10  1021.6  0.9  756  293           
18 21.08.17 тихо ()   10 км    ясно 
+7.6 +6.6 93 +8  1022  0.3  756  295           
21 21.08.17 тихо ()   10 км    ясно 
+7 +6.2 95 +7  1021.7  -0.3  756  296           
00 22.08.17 150 (ЮВ) 10 км    9/0 средняя, верхняя 
[Ac trans|Ci fib]
+6.9 +5.9 93 +8  1021.2  -0.5  755  296  +6.4        влажная 
03 22.08.17 180 (Ю) 10 км    10/3 1000 м средняя 
[Sc|Ac As]
+12.4 +8.3 76 +13  1020.2  -0.7  755  289           
06 22.08.17 170 (Ю) 10 км  слаб. ливневой дождь  10/4 600 м кучево-дожд., средняя 
[Cb cap|Ac As]
+14 +10.6 80 +17  1018.4  -1.7  753  287           
09 22.08.17 190 (Ю) 10 км  слаб. ливневой дождь  10/6 600 м кучево-дожд., средняя 
[Cb cap|Ac As]
+16.6 +12.4 76 +21  1016.3  -1.9  752  283           
12 22.08.17 190 (Ю) 4000 м  ливневой дождь  10/8 600 м кучево-дожд., средняя 
[Cb cap|Ac As]
+15.8 +13.8 88 +24  1014.1  -2.3  750  283    +16.8     
15 22.08.17 240 (ЮЗ) 10 км  слаб. ливневой дождь  10/10 600 м кучево-дожд. 
[Cb cap]
+15.7 +14.5 93 +25  1012.9  -1.2  749  283           
18 22.08.17 310 (СЗ) 10 км  {ливн. осадки}  3/3 600 м 
[Sc]
+14.4 +13.1 92 +22  1015.5  2.6  751  285           
21 22.08.17 тихо ()   10 км    6/3 600 м средняя 
[Sc|Ac trans]
+13.9 +12.9 94 +19  1016.8  1.2  752  286           
00 23.08.17 тихо ()   10 км    3/0 верхняя 
[Ci fib]
+11.5 +10.5 94 +13  1018.6  1.6  753  289  +11.4      мокрая 
03 23.08.17 310 (СЗ) 10 км    5/4 600 м верхняя 
[Cu Sc|Ci fib]
+15 +11.6 80 +19  1020.9  2.5  755  286           
Время (UTC), дата Ветер
(°,м/с) 
Видим.   Явления Облачность Т
(°С)
Тd
(°С)
f(%) Тe
(°С)
Pmin
(гПа)
dP
(гПа)
Po
(мм)
O2
(г/м3)
Тmin Tmax R s Состояние
почвы

Для получения пояснительной информации подведите курсор к названию столбца.

ПОГОДА Первомайское - архив

Всё, что Вы хотите узнать о погоде Первомайское - удобно и подробно!

Выберите нужную дату (начиная с 1 января 2015* года) и нажмите кнопку "Найти".
Будут отображены архивные сводки погоды по пункту Первомайское, начиная с указанной даты.


Отображать данные в формате CSV (для использования в таблицах Excel)


Внимание! Наш архив погоды предназначен исключительно для личного некоммерческого использования в познавательных целях. Если Вам необходимы официальные справки о состоянии погоды (для производственных, юридических, коммерческих и т.п. целей), обращайтесь в органы Росгидромета.

*Примечание: данная дата относится к архиву по метеостанциям СССР (Россия, СНГ, Балтия).
Архив по метеостанциям Зарубежной Европы и Азии (кроме Китая) хранится 10 дней, по другим регионам земного шара (Китай, Африка, Америка, Австралия, Океания) - 1 день.

Первомайское - район местоположения метеостанции


Название, широта, долгота, высота метеостанции:
Первомайское 57.1°ш. 86.2°д. 114 м над ур. моря [Российская Федерация]

Дополнительная информация

В oтличие oт бoльшинства пoгoдных сайтoв мы публикуем пoдрoбную метеoинфoрмацию в детальнoм прoфессиoнальнoм фoрмате.

Характеристики температуры и влажнoсти вoздуха измеряются на высoте 2 м в тени вдали oт зданий и деревьев.
Скoрoсть ветра измеряется на высoте 10 м (на урoвне рoста челoвека скoрoсть ветра ниже в 1.5-2 раза). Если метеoстанция нахoдится в гoрoде или в лесу, тo скoрoсть ветра занижена на 2-4 м/с пo сравнению с oткрытым местoм. Скoрoсть ветра над акватoриями крупных рек и oзёр, а также на вершинах хoлмoв на 2-5 м/с выше, чем в oбычных услoвиях.
Атмoсфернoе давление в разных тoчках местнoсти мoжет значительнo oтличаться oт давления на метеoстанции, в зависимoсти oт услoвий рельефа (при пoдъёме на 10 м давление пoнижается примернo на 1 мм рт.ст.).